PILOTS ONLINE: 438    ATC ONLINE: 87

EGDX

MOD St. Athan

Location

IATA DGX
City St. Athan
Country  United Kingdom
Latitude 51° 24' 17" N
Longitude 3° 26' 8" W
Elevation 163 ft
Type Medium Airport

Map

Weather

METAR
2014/10/01 19:50
EGDX 011950Z AUTO 28002KT 9000 BR NCD 15/15 Q1027
TAF
No TAF available

Runways

08/26 5988 ft / 141 ft

Outbound flights

Callsign Flying to Pilot ATD/STD ETA Aircraft

Inbound flights

Callsign Flying from Pilot ATD ETA Aircraft